Weather in Shulma

Russia / Vologda Oblast     59°12′16″N   37°32′40″E
temp.,
°C
wind,
m/s
gust,
m/s
humid.,
%
clouds,
%
prec.,
mm/h
press.,
hPa
HPBL,
m
9 may, sun
sun900:00+6nw4897100 3.4 1004494
03:00+4nw51096100 5.3 1005706
06:00+3nw51193100 0.9 1007772
09:00+5nnw6107854 1.0 1009923
12:00+9nw6944100 0.0 10111621
15:00+11nw6838100 0.0 10132368
18:00+10nw57455 0.0 10162127
21:00+5nw3106012 0.0 1019293
10 may, mon
mon1000:00+2nw27750 0.0 1022125
03:00+1wnw22735 0.0 102522
06:00+3wsw236677 0.0 102685
09:00+9ssw344792 0.0 1027559
12:00+13ssw473791 0.0 10271771
15:00+14sw5740100 0.0 10261854
18:00+10ssw3962100 0.0 1027352
21:00+7s38795 0.0 1028146
11 may, tue
tue1100:00+7ssw3108215 0.0 1029193
03:00+6ssw2887100 0.0 1029153
06:00+8ssw2783100 0.0 1030181
09:00+13ssw356499 0.0 1030429
12:00+18ssw45509 0.0 10301067
15:00+20ssw344550 0.0 10301372
18:00+18sse35565 0.0 1029541
21:00+11sse38780 0.0 1030136
12 may, wed
wed1200:00+9s26805 0.0 1031116
03:00+8s22880 0.0 103013
06:00+10se24800 0.0 1031110
09:00+15se34562 0.0 1030482
12:00+18sse45454 0.0 10291017
15:00+20sse46380 0.0 10281060
18:00+18sse37470 0.0 1027435
21:00+13se22619 0.0 102731
13 may, thu
thu1300:00+12ese22815 0.0 102729
03:00+11e23908 0.0 102758
06:00+13e38855 0.0 1026205
09:00+19ese486723 0.0 1025660
12:00+21se595797 0.4 10231375
15:00+23se59498 0.8 10221849
18:00+19se51066100 0.4 1020823
21:00+14se368899 0.6 1020150